When you browse on this site, cookies collect data to enhance your experience and personalize the content and advertising you see.
Visit our Privacy Policy to learn more. By continuing to use the site, you agree to this use of cookies and data.
  • In Lithuania
  • List of Countries
  • For 7 days
  • Water Temperature
  • Satellite Maps
  • Weather Map
  • Weather Widgets
  • user-avatar
    Login

    Hourly Weather Myszkowice

    Today, 15 February, Friday

    Time Temperature Precipitation Wind Pressure Humidity
    00:00 +4°C° 0 mm 1 mps 751 mmHg 91%
    01:00 +3°C° 0 mm 1 mps 751 mmHg 91%
    02:00 +3°C° 0 mm 1 mps 750 mmHg 90%
    03:00 +3°C° 0 mm 1 mps 750 mmHg 89%
    04:00 +3°C° 0 mm 1 mps 750 mmHg 89%
    05:00 +2°C° 0 mm 1 mps 750 mmHg 87%
    06:00 +2°C° 0 mm 1 mps 750 mmHg 86%
    07:00 +2°C° 0 mm 1 mps 750 mmHg 84%
    08:00 +4°C° 0 mm 1 mps 750 mmHg 77%
    09:00 +5°C° 0 mm 1 mps 750 mmHg 70%
    10:00 +6°C° 0 mm 1 mps 750 mmHg 64%
    11:00 +7°C° 0 mm 2 mps 750 mmHg 61%
    12:00 +8°C° 0 mm 2 mps 750 mmHg 57%
    13:00 +8°C° 0 mm 3 mps 750 mmHg 55%
    14:00 +8°C° 0 mm 2 mps 750 mmHg 58%
    15:00 +8°C° 0 mm 2 mps 750 mmHg 62%
    16:00 +8°C° 0 mm 2 mps 749 mmHg 65%
    17:00 +6°C° 0 mm 2 mps 749 mmHg 69%
    18:00 +5°C° 0 mm 2 mps 749 mmHg 72%
    19:00 +4°C° 0 mm 2 mps 749 mmHg 75%
    20:00 +3°C° 0 mm 2 mps 749 mmHg 74%
    21:00 +3°C° 0 mm 2 mps 749 mmHg 73%
    22:00 +3°C° 0 mm 2 mps 749 mmHg 72%
    23:00 +4°C° 0 mm 1 mps 749 mmHg 69%

    Tomorrow, 16 February, Saturday

    Time Temperature Precipitation Wind Pressure Humidity
    00:00 +3°C° 0 mm 1 mps 748 mmHg 67%
    01:00 +3°C° 0 mm 1 mps 748 mmHg 65%
    02:00 +3°C° 0 mm 1 mps 748 mmHg 63%
    03:00 +3°C° 0 mm 1 mps 748 mmHg 61%
    04:00 +3°C° 0 mm 1 mps 748 mmHg 58%
    05:00 +3°C° 0 mm 1 mps 748 mmHg 57%
    06:00 +3°C° 0 mm 1 mps 748 mmHg 56%
    07:00 +2°C° 0 mm 2 mps 747 mmHg 54%
    08:00 +4°C° 0 mm 2 mps 747 mmHg 52%
    09:00 +6°C° 0 mm 2 mps 747 mmHg 50%
    10:00 +8°C° 0 mm 2 mps 747 mmHg 48%
    11:00 +9°C° 0 mm 2 mps 747 mmHg 46%
    12:00 +10°C° 0 mm 2 mps 747 mmHg 45%
    13:00 +13°C° 0 mm 2 mps 747 mmHg 44%
    14:00 +12°C° 0 mm 2 mps 747 mmHg 48%
    15:00 +10°C° 0 mm 2 mps 746 mmHg 52%
    16:00 +9°C° 0 mm 2 mps 746 mmHg 56%
    17:00 +8°C° 0 mm 3 mps 746 mmHg 57%
    18:00 +5°C° 0 mm 3 mps 746 mmHg 58%
    19:00 +4°C° 0 mm 3 mps 746 mmHg 58%
    20:00 +4°C° 0 mm 3 mps 746 mmHg 57%
    21:00 +3°C° 0 mm 3 mps 745 mmHg 56%
    22:00 +3°C° 0 mm 3 mps 745 mmHg 56%
    23:00 +3°C° 0 mm 3 mps 745 mmHg 58%

    Day after tomorrow, 17 February, Sunday

    Time Temperature Precipitation Wind Pressure Humidity
    00:00 +3°C° 0 mm 3 mps 745 mmHg 59%
    01:00 +2°C° 0 mm 3 mps 745 mmHg 61%
    02:00 +2°C° 0 mm 3 mps 745 mmHg 62%
    03:00 +3°C° 0 mm 2 mps 745 mmHg 62%
    04:00 +3°C° 0 mm 2 mps 745 mmHg 63%
    05:00 +2°C° 0 mm 2 mps 745 mmHg 63%
    06:00 +2°C° 0 mm 2 mps 745 mmHg 63%
    07:00 +2°C° 0 mm 2 mps 745 mmHg 64%
    08:00 +4°C° 0 mm 2 mps 745 mmHg 61%
    09:00 +6°C° 0 mm 1 mps 745 mmHg 57%
    10:00 +8°C° 0 mm 1 mps 745 mmHg 54%
    11:00 +9°C° 0 mm 1 mps 745 mmHg 51%
    12:00 +11°C° 0 mm 1 mps 745 mmHg 48%
    13:00 +12°C° 0 mm 1 mps 745 mmHg 45%
    14:00 +12°C° 0 mm 1 mps 744 mmHg 50%
    15:00 +11°C° 0 mm 1 mps 744 mmHg 54%
    16:00 +11°C° 0 mm 1 mps 744 mmHg 58%
    17:00 +9°C° 0 mm 1 mps 744 mmHg 62%
    18:00 +8°C° 0 mm 1 mps 744 mmHg 65%
    19:00 +6°C° 0 mm 1 mps 744 mmHg 68%
    20:00 +6°C° 0 mm 1 mps 744 mmHg 67%
    21:00 +5°C° 0 mm 1 mps 744 mmHg 66%
    22:00 +5°C° 0 mm 1 mps 744 mmHg 65%
    23:00 +4°C° 0 mm 2 mps 744 mmHg 64%

    18 February, Monday

    Time Temperature Precipitation Wind Pressure Humidity
    00:00 +3°C° 0 mm 2 mps 744 mmHg 63%
    01:00 +3°C° 0 mm 2 mps 744 mmHg 62%
    02:00 +3°C° 0 mm 2 mps 743 mmHg 63%
    03:00 +3°C° 0 mm 2 mps 743 mmHg 63%
    04:00 +2°C° 0 mm 2 mps 743 mmHg 63%
    05:00 +2°C° 0 mm 2 mps 743 mmHg 64%
    06:00 +2°C° 0 mm 2 mps 743 mmHg 64%
    07:00 +3°C° 0 mm 1 mps 743 mmHg 65%
    08:00 +5°C° 0 mm 1 mps 743 mmHg 61%
    09:00 +7°C° 0 mm 1 mps 743 mmHg 57%
    10:00 +8°C° 0 mm 1 mps 743 mmHg 53%
    11:00 +10°C° 0 mm 1 mps 743 mmHg 50%
    12:00 +11°C° 0 mm 1 mps 743 mmHg 46%
    13:00 +13°C° 0 mm 1 mps 743 mmHg 43%
    14:00 +12°C° 0 mm 1 mps 742 mmHg 46%
    15:00 +12°C° 0 mm 1 mps 742 mmHg 50%
    16:00 +11°C° 0 mm 1 mps 742 mmHg 54%
    17:00 +10°C° 0 mm 1 mps 742 mmHg 59%
    18:00 +7°C° 0 mm 2 mps 741 mmHg 63%
    19:00 +5°C° 0 mm 2 mps 741 mmHg 68%
    20:00 +5°C° 0 mm 2 mps 741 mmHg 70%
    21:00 +4°C° 0 mm 2 mps 741 mmHg 71%
    22:00 +3°C° 0 mm 3 mps 741 mmHg 73%
    23:00 +3°C° 0 mm 3 mps 741 mmHg 74%

    19 February, Tuesday

    Time Temperature Precipitation Wind Pressure Humidity
    00:00 +2°C° 0 mm 3 mps 741 mmHg 76%
    01:00 +2°C° 0 mm 3 mps 741 mmHg 77%
    02:00 +2°C° 0 mm 3 mps 741 mmHg 77%
    03:00 +2°C° 0 mm 3 mps 740 mmHg 78%
    04:00 +1°C° 0 mm 3 mps 740 mmHg 79%
    05:00 +1°C° 0 mm 3 mps 740 mmHg 80%
    06:00 +1°C° 0 mm 3 mps 740 mmHg 81%
    07:00 +1°C° 0 mm 3 mps 740 mmHg 82%
    08:00 +2°C° 0 mm 3 mps 740 mmHg 76%
    09:00 +4°C° 0 mm 3 mps 740 mmHg 71%
    10:00 +7°C° 0 mm 3 mps 740 mmHg 65%
    11:00 +7°C° 0 mm 4 mps 740 mmHg 62%
    12:00 +8°C° 0 mm 4 mps 740 mmHg 59%
    13:00 +10°C° 0 mm 4 mps 739 mmHg 56%
    14:00 +10°C° 0 mm 4 mps 739 mmHg 57%
    15:00 +8°C° 0 mm 5 mps 739 mmHg 58%
    16:00 +8°C° 0 mm 5 mps 739 mmHg 59%
    17:00 +7°C° 0 mm 5 mps 739 mmHg 63%
    18:00 +6°C° 0 mm 5 mps 739 mmHg 66%
    19:00 +5°C° 0 mm 4 mps 739 mmHg 69%
    20:00 +5°C° 0.1 mm 4 mps 740 mmHg 72%
    21:00 +5°C° 0.1 mm 4 mps 740 mmHg 75%
    22:00 +5°C° 0.1 mm 4 mps 741 mmHg 78%
    23:00 +4°C° 0 mm 3 mps 741 mmHg 83%

    20 February, Wednesday

    Time Temperature Precipitation Wind Pressure Humidity
    00:00 +3°C° 0 mm 3 mps 741 mmHg 87%
    01:00 +3°C° 0 mm 3 mps 741 mmHg 91%
    02:00 +2°C° 0 mm 3 mps 741 mmHg 90%
    03:00 +2°C° 0 mm 3 mps 741 mmHg 90%
    04:00 +1°C° 0 mm 3 mps 741 mmHg 90%
    05:00 +1°C° 0 mm 3 mps 742 mmHg 90%
    06:00 +1°C° 0 mm 3 mps 742 mmHg 90%
    07:00 +1°C° 0 mm 3 mps 742 mmHg 90%
    08:00 +1°C° 0 mm 4 mps 742 mmHg 83%
    09:00 +3°C° 0 mm 4 mps 743 mmHg 77%
    10:00 +5°C° 0 mm 5 mps 743 mmHg 71%
    11:00 +6°C° 0 mm 5 mps 743 mmHg 66%
    12:00 +7°C° 0 mm 5 mps 743 mmHg 61%
    13:00 +7°C° 0 mm 5 mps 743 mmHg 56%
    14:00 +7°C° 0 mm 5 mps 743 mmHg 58%
    15:00 +7°C° 0 mm 4 mps 743 mmHg 59%
    16:00 +7°C° 0 mm 4 mps 743 mmHg 61%
    17:00 +7°C° 0 mm 3 mps 743 mmHg 67%
    18:00 +5°C° 0 mm 3 mps 743 mmHg 73%
    19:00 +3°C° 0 mm 3 mps 743 mmHg 78%
    20:00 +3°C° 0 mm 3 mps 743 mmHg 79%
    21:00 +3°C° 0 mm 3 mps 743 mmHg 79%
    22:00 +3°C° 0 mm 3 mps 744 mmHg 80%
    23:00 +3°C° 0 mm 3 mps 743 mmHg 81%
    Show more